Location: Le Petit-Vavre
(46.5081°N, 1.5239°E)
Time: 20:51:30
(UTC+00:00)

Cosmos 2278 Rocket - Pass Details

Date: 03 March 2021
Orbit: 842 x 845 km, 71.0° (Epoch: 20 April)

Event Time Altitude Azimuth Distance (km) Brightness Sun altitude
Rises 20:23:03 0° 334° (NNW) 3,414 6.0 -27.9°
Reaches altitude 10° 20:25:31 10° 337° (NNW) 2,475 5.1 -28.3°
Enters shadow 20:30:13 57° 8° (N) 989 2.5 -29.0°
